Regional Weather Roundup
Issued by NWS

Home | Current Version | Previous Version | Graphics & Text | Print | Product List | Glossary On
Versions: 1 2 3 4 5 6 7 8 9 10 11 12 13 14 15 16 17 18 19 20 21 22 23 24 25 26 27 28 29 30 31 32 33 34 35 36 37 38 39 40 41 42 43 44 45 46 47 48 49 50
000
ASUS44 KMEG 020100
RWRTN
TENNESSEE HOURLY STATE WEATHER ROUNDUP
NATIONAL WEATHER SERVICE MEMPHIS TN
800 PM CDT MON SEP 01 2014

TNZ002-004-019-021-049-052-054-088>092-020200-
WEST TENNESSEE

CITY           SKY/WX    TMP DP  RH WIND       PRES   REMARKS
MEMPHIS INTL   CLEAR     84  72  67 S6        29.97R
NWS MEMPHIS      N/A     85 N/A N/A MISG        N/A
JACKSON        CLEAR     78  73  84 S3        29.98R
DYERSBURG      CLEAR     81  64  57 CALM      29.96S
UNION CITY     CLEAR     79  72  78 S3        29.94S
PARIS          CLEAR     75  70  83 S3        29.98S
LEXINGTON      CLEAR     81  70  69 S5        29.99R
SAVANNAH       CLEAR     75  75 100 SE3       30.01R
$$

TNZ008-025-027-028-033-062-065-066-020200-
NORTH MIDDLE TENNESSEE

CITY           SKY/WX    TMP DP  RH WIND       PRES   REMARKS
NASHVILLE      PTCLDY    84  67  56 SW6       30.01R
CLARKSVILLE    CLEAR     80  71  74 S3        29.98S
COOKEVILLE     CLEAR     79  72  78 SW3       30.05R
CROSSVILLE     CLEAR     76  67  73 CALM      30.11R
$$

TNZ061-075-076-078-094-096-097-020200-
SOUTH MIDDLE TENNESSEE

CITY           SKY/WX    TMP DP  RH WIND       PRES   REMARKS
FAYETTEVILLE   CLEAR     79  68  69 CALM      30.06R
TULLAHOMA      CLEAR     79  70  73 CALM      30.08R
WINCHESTER     CLEAR     79  73  83 CALM      30.07R
COLUMBIA         N/A     79  70  73 CALM      30.01R
SHELBYVILLE    CLEAR     81  72  74 S3        30.05R
$$

TNZ017-018-042-046-047-020200-
NORTHEAST TENNESSEE

CITY           SKY/WX    TMP DP  RH WIND       PRES   REMARKS
TRI CITIES     PTCLDY    77  68  73 CALM      30.09R
ELIZABETHTON   PTCLDY    70  66  88 CALM      30.12R
$$

TNZ012-013-036-069-073-074-020200-
CENTRAL EAST TENNESSEE

CITY           SKY/WX    TMP DP  RH WIND       PRES   REMARKS
KNOXVILLE      PTCLDY    79  69  71 S6        30.05R
OAK RIDGE      PTCLDY    82  71  69 CALM      30.07R
GATLINBURG     CLEAR     77  70  78 CALM      30.07R
$$

TNZ083-085-099-020200-
SOUTHEAST TENNESSEE

CITY           SKY/WX    TMP DP  RH WIND       PRES   REMARKS
CHATTANOOGA    PTCLDY    84  68  58 CALM      30.05R
$$

SKY/WX REPORTED AS FAIR MEANS FEW OR NO CLOUDS BELOW
12 THOUSAND FEET.



USA.gov is the U.S. government's official web portal to all federal, state and local government web resources and services.